DW8947 Weather Reports


time (UTC)temp
F
wind
direction
speed
knots
gust
knots
rain 1hr
in
rain 24hr
in
rain mn
in
humidity
%
barometer
mb
20260504204204 75 170 0.9 1.7 0.00 0.00 0.00 53 1008.7
20260504202704 75 176 0.0 1.7 0.00 0.00 0.00 52 1008.7
20260504200704 75 34 0.0 1.7 0.00 0.00 0.00 51 1008.8
20260504195204 74 241 0.0 1.7 0.00 0.00 0.00 49 1008.8
20260504194705 73 236 0.9 1.7 0.00 0.00 0.00 51 1008.7
20260504194204 73 285 0.9 1.7 0.00 0.00 0.00 50 1008.7
20260504193204 73 238 0.9 0.9 0.00 0.00 0.00 51 1008.8
20260504192704 72 219 0.0 1.7 0.00 0.00 0.00 54 1008.8
20260504192204 71 214 0.9 1.7 0.00 0.00 0.00 54 1008.9
20260504191204 70 227 0.9 1.7 0.00 0.00 0.00 55 1009.0
20260504190703 69 104 0.9 1.7 0.00 0.00 0.00 56 1009.1
20260504185203 69 92 0.0 2.6 0.00 0.00 0.00 54 1009.2
20260504184204 70 102 0.0 0.9 0.00 0.00 0.00 56 1009.2
20260504183704 70 110 0.0 1.7 0.00 0.00 0.00 54 1009.2
20260504183204 69 39 0.0 1.7 0.00 0.00 0.00 55 1009.2
20260504182204 69 126 0.0 0.9 0.00 0.00 0.00 55 1009.2
20260504180704 68 126 0.0 1.7 0.00 0.00 0.00 58 1009.0
20260504180204 67 126 0.0 0.9 0.00 0.00 0.00 61 1009.1
20260504175704 67 126 0.0 0.9 0.00 0.00 0.00 60 1009.2
20260504175204 67 126 0.9 1.7 0.00 0.00 0.00 61 1009.1
20260504174703 66 126 0.9 1.7 0.00 0.00 0.00 60 1009.1
20260504174204 66 126 0.9 1.7 0.00 0.00 0.00 61 1009.1
20260504173204 65 126 0.0 0.9 0.00 0.00 0.00 65 1009.2
20260504170704 65 67 0.0 1.7 0.00 0.00 0.00 63 1009.1
20260504170203 64 67 0.0 1.7 0.00 0.00 0.00 63 1009.1
20260504150703 57 66 0.0 0.0 0.00 0.00 0.00 77 1008.6
20260504150204 57 66 0.0 0.0 0.00 0.00 0.00 77 1008.5
20260504140704 56 66 0.0 0.0 0.00 0.00 0.00 72 1008.2
20260504120204 60 67 0.0 0.0 0.00 0.00 0.00 67 1007.5
20260504100204 61 67 0.0 0.0 0.00 0.00 0.00 60 1007.4
20260504081704 62 66 0.0 0.0 0.00 0.00 0.00 50 1007.3
20260504081203 62 66 0.0 0.0 0.00 0.00 0.00 51 1007.3
20260504080704 63 66 0.0 0.0 0.00 0.00 0.00 51 1007.3
20260504070204 66 100 0.0 1.7 0.00 0.00 0.00 46 1007.4
20260504060203 68 75 0.0 1.7 0.00 0.00 0.00 44 1007.3
20260504050703 68 98 0.0 0.9 0.00 0.00 0.00 45 1007.4
20260504045704 68 170 0.9 1.7 0.00 0.00 0.00 47 1007.4
20260504045204 68 48 0.0 1.7 0.00 0.00 0.00 45 1007.4
20260504044704 68 48 0.0 1.7 0.00 0.00 0.00 46 1007.4
20260504043704 68 6 0.0 1.7 0.00 0.00 0.00 46 1007.5
20260504042704 68 34 0.0 1.7 0.00 0.00 0.00 48 1007.4
20260504042204 68 34 0.0 1.7 0.00 0.00 0.00 45 1007.5
20260504041204 69 73 0.0 1.7 0.00 0.00 0.00 46 1007.4
20260504040703 69 94 0.9 1.7 0.00 0.00 0.00 44 1007.3
20260504035204 69 96 0.0 1.7 0.00 0.00 0.00 45 1007.2
20260504034204 69 58 0.0 0.9 0.00 0.00 0.00 47 1007.2
20260504032204 70 117 0.0 1.7 0.00 0.00 0.00 47 1007.2
20260504031704 71 129 0.0 1.7 0.00 0.00 0.00 47 1007.3
20260504031203 71 222 0.0 1.7 0.00 0.00 0.00 45 1007.3
20260504025204 72 96 0.0 0.9 0.00 0.00 0.00 45 1007.3
20260504023704 72 166 0.0 1.7 0.00 0.00 0.00 46 1007.2
20260504023204 72 70 0.9 1.7 0.00 0.00 0.00 45 1007.3
20260504022703 73 50 0.0 1.7 0.00 0.00 0.00 45 1007.3
20260504022203 73 50 0.0 0.9 0.00 0.00 0.00 44 1007.3
20260504021703 73 50 0.0 1.7 0.00 0.00 0.00 43 1007.4
20260504021204 74 134 0.0 1.7 0.00 0.00 0.00 41 1007.4
20260504020203 74 10 0.0 1.7 0.00 0.00 0.00 42 1007.4
20260504015203 75 344 0.9 2.6 0.00 0.00 0.00 36 1007.5
20260504014204 75 325 0.0 1.7 0.00 0.00 0.00 38 1007.6
20260504013204 76 311 0.9 1.7 0.00 0.00 0.00 35 1007.6
20260504012703 76 331 0.9 1.7 0.00 0.00 0.00 37 1007.6
20260504012204 76 336 0.9 2.6 0.00 0.00 0.00 38 1007.7
20260504011704 76 52 0.9 1.7 0.00 0.00 0.00 38 1007.8
20260504010704 77 337 0.9 1.7 0.00 0.00 0.00 42 1007.8
20260504010204 77 96 0.9 2.6 0.00 0.00 0.00 36 1007.9
20260504005203 77 82 0.9 2.6 0.00 0.00 0.00 39 1007.9
20260504004703 77 103 0.9 4.3 0.00 0.00 0.00 40 1008.0
20260504004203 77 39 0.9 2.6 0.00 0.00 0.00 37 1008.0
20260504003703 77 319 0.9 1.7 0.00 0.00 0.00 36 1008.1
20260504002704 78 315 0.9 1.7 0.00 0.00 0.00 35 1008.1
20260504001704 78 302 0.0 1.7 0.00 0.00 0.00 40 1008.1
20260504001204 77 303 0.9 2.6 0.00 0.00 0.00 35 1008.2
20260504000704 77 36 0.9 1.7 0.00 0.00 0.00 37 1008.3
20260504000204 77 281 0.0 1.7 0.00 0.00 0.00 38 1008.3
20260503234703 77 329 0.0 0.9 0.00 0.00 0.00 39 1008.4
20260503233203 78 323 0.9 1.7 0.00 0.00 0.00 40 1008.6
20260503231204 79 284 0.9 2.6 0.00 0.00 0.00 38 1008.9
20260503230203 79 325 0.9 2.6 0.00 0.00 0.00 39 1008.9
20260503225704 79 7 0.0 1.7 0.00 0.00 0.00 40 1009.0
20260503225204 79 10 0.9 2.6 0.00 0.00 0.00 38 1009.2
20260503224204 80 295 0.9 2.6 0.00 0.00 0.00 36 1009.2
20260503223704 80 0 0.9 1.7 0.00 0.00 0.00 37 1009.3
20260503223204 79 173 0.9 2.6 0.00 0.00 0.00 35 1009.4
20260503222704 79 234 0.0 1.7 0.00 0.00 0.00 38 1009.5
20260503221704 79 334 0.9 2.6 0.00 0.00 0.00 35 1009.6
20260503221203 79 302 0.9 1.7 0.00 0.00 0.00 35 1009.7
20260503220203 79 307 0.9 2.6 0.00 0.00 0.00 35 1009.8
20260503215704 79 328 0.9 2.6 0.00 0.00 0.00 36 1009.8
20260503215203 78 216 0.9 6.1 0.00 0.00 0.00 36 1009.8
20260503214704 78 338 1.7 2.6 0.00 0.00 0.00 38 1010.0
20260503213704 78 356 0.0 1.7 0.00 0.00 0.00 38 1010.1
20260503213203 78 291 0.9 1.7 0.00 0.00 0.00 40 1010.2
20260503212704 78 4 0.9 2.6 0.00 0.00 0.00 39 1010.2
20260503212204 78 300 0.9 1.7 0.00 0.00 0.00 40 1010.2
20260503211204 78 335 0.9 1.7 0.00 0.00 0.00 43 1010.3
20260503210203 78 313 0.9 1.7 0.00 0.00 0.00 44 1010.4
20260503205204 78 237 0.9 1.7 0.00 0.00 0.00 42 1010.4